Regional Weather Roundup
Issued by NWS

Home | Current Version | Previous Version | Text Only | Print | Product List | Glossary Off
Versions: 1 2 3 4 5 6 7 8 9 10 11 12 13 14 15 16 17 18 19 20 21 22 23 24 25 26 27 28 29 30 31 32 33 34 35 36 37 38 39 40 41 42 43 44 45 46 47 48 49 50

000
ASUS44 KMEG 290010
RWRTN
TENNESSEE HOURLY STATE WEATHER ROUNDUP
NATIONAL WEATHER SERVICE MEMPHIS TN
700 PM CDT THU AUG 28 2014

TNZ002-004-019-021-049-052-054-088>092-290100-
WEST TENNESSEE

CITY           SKY/WX    TMP DP  RH WIND       PRES   REMARKS
MEMPHIS INTL   PTCLDY    88  62  41 VRB6      29.94S
NWS MEMPHIS      N/A     88 N/A N/A MISG        N/A
JACKSON        CLEAR     85  74  69 CALM      29.95S HX  92
DYERSBURG      CLEAR     84  66  54 N3        29.95F
UNION CITY     CLEAR     79  72  78 E6        29.96S
PARIS          MOCLDY    79  70  73 N8        29.99R
HUNTINGDON     PTCLDY    83  71  66 CALM      29.96S
LEXINGTON      CLEAR     88  72  58 CALM      29.96S HX  94
SAVANNAH       CLEAR     84  77  79 CALM      29.97R HX  94
$$

TNZ008-025-027-028-033-062-065-066-290100-
NORTH MIDDLE TENNESSEE

CITY           SKY/WX    TMP DP  RH WIND       PRES   REMARKS
NASHVILLE      MOCLDY    85  70  60 NW8       29.98R
DICKSON        PTCLDY    81  72  74 N8        30.01R
PORTLAND       MOCLDY    79  70  73 N5        30.00S
CLARKSVILLE    CLOUDY    78  75  90 CALM      29.99R
LEBANON        PTCLDY    86  73  64 NE3       29.98R HX  93
SMYRNA         PTCLDY    88  73  60 NE7       29.98R HX  95
MURFREESBORO   PTCLDY    88  71  56 NE5       29.97R HX  93
COOKEVILLE     CLEAR     79  73  83 E5        30.02R
LIVINGSTON     MOCLDY    78  68  71 S12       30.06
GALLATIN       PTCLDY    86  75  69 NE6       30.00R HX  95
CROSSVILLE     MOCLDY    75  69  81 N6        30.09R
$$

TNZ061-075-076-078-094-096-097-290100-
SOUTH MIDDLE TENNESSEE

CITY           SKY/WX    TMP DP  RH WIND       PRES   REMARKS
LEWISBURG      PTCLDY    87  70  57 CALM      29.98R HX  92
FAYETTEVILLE   CLEAR     82  64  54 SE3       30.00R
TULLAHOMA      CLEAR     84  66  54 CALM      30.03R
WINCHESTER     CLEAR     84  70  61 CALM      30.01R
MCMINNVILLE    CLEAR     81  75  83 NE3       30.02R
COLUMBIA       CLEAR     88  73  62 CALM      29.97R HX  96
SHELBYVILLE    CLEAR     88  73  62 CALM      30.00R HX  96
$$

TNZ017-018-042-046-047-290100-
NORTHEAST TENNESSEE

CITY           SKY/WX    TMP DP  RH WIND       PRES   REMARKS
TRI CITIES     PTCLDY    80  68  66 N3        30.04S
ELIZABETHTON   CLEAR     75  68  78 CALM      30.05R
$$

TNZ012-013-036-069-073-074-290100-
CENTRAL EAST TENNESSEE

CITY           SKY/WX    TMP DP  RH WIND       PRES   REMARKS
KNOXVILLE      PTCLDY    84  69  60 E3        30.00R
OAK RIDGE      PTCLDY    84  69  60 CALM      30.02R
GATLINBURG     CLEAR     82  68  61 S3        30.00R
MORRISTOWN     CLEAR     82  70  65 CALM      30.04R
$$

TNZ083-085-099-290100-
SOUTHEAST TENNESSEE

CITY           SKY/WX    TMP DP  RH WIND       PRES   REMARKS
CHATTANOOGA    PTCLDY    88  63  43 CALM      29.98S
$$

SKY/WX REPORTED AS FAIR MEANS FEW OR NO CLOUDS BELOW
12 THOUSAND FEET.




USA.gov is the U.S. government's official web portal to all federal, state and local government web resources and services.